Volver al catálogo

CSSHQ SUBSATELLITE 2

ActivoMilitarVLEO
NORAD 59884·PAYLOAD·🇨🇳 China
Este nombre de satélite aún no ha sido confirmado por fuentes oficiales.

Lanzado Dec 14, 2023 desde Jiuquan Satellite Launch Center

Loading…

Próximos Pases (próximas 24 horas)

TLE

ActualizadoSource: Space-Track

Época: Sep 14, 2026, 17:17 UTC

1 59884U 23195G   26257.72040839  .00000733  00000-0  95378-4 0  9998
2 59884  49.9925 215.3717 0003272  45.1221 314.9986 14.91983340125672

Sigue CSSHQ SUBSATELLITE 2 en tiempo real con AllMySat

Download on the App Store